TimeEST,TemperatureF,Dew PointF,Humidity,Sea Level PressureIn,VisibilityMPH,Wind Direction,Wind SpeedMPH,Gust SpeedMPH,PrecipitationIn,Events,Conditions,WindDirDegrees,DateUTC
12:53 AM,30.0,21.9,72,29.97,10.0,West,12.7,23.0,N/A,,Overcast,270,2013-02-12 05:53:00
1:53 AM,30.0,21.9,72,29.99,9.0,West,10.4,-,N/A,,Overcast,270,2013-02-12 06:53:00
2:53 AM,30.0,21.9,72,30.01,10.0,West,12.7,-,0.00,,Overcast,280,2013-02-12 07:53:00
3:53 AM,30.0,21.9,72,30.02,10.0,West,15.0,21.9,N/A,,Overcast,270,2013-02-12 08:53:00
4:53 AM,28.9,21.9,75,30.04,10.0,West,16.1,23.0,N/A,,Overcast,280,2013-02-12 09:53:00
5:53 AM,28.9,21.9,75,30.05,10.0,West,9.2,18.4,N/A,,Overcast,280,2013-02-12 10:53:00
6:53 AM,28.9,21.9,75,30.06,10.0,West,11.5,-,N/A,,Overcast,280,2013-02-12 11:53:00
7:53 AM,28.9,21.9,75,30.06,10.0,WSW,8.1,-,N/A,,Overcast,250,2013-02-12 12:53:00
8:53 AM,28.9,21.9,75,30.08,10.0,WSW,10.4,-,N/A,,Overcast,250,2013-02-12 13:53:00
9:53 AM,28.9,23.0,78,30.08,9.0,SW,8.1,-,N/A,,Overcast,230,2013-02-12 14:53:00
10:53 AM,28.0,23.0,81,30.08,10.0,WSW,10.4,-,N/A,,Overcast,250,2013-02-12 15:53:00
11:53 AM,28.9,21.9,75,30.08,10.0,WSW,11.5,18.4,N/A,,Overcast,240,2013-02-12 16:53:00
12:53 PM,28.9,21.9,75,30.06,10.0,WSW,11.5,-,N/A,,Overcast,250,2013-02-12 17:53:00
1:53 PM,28.9,21.9,75,30.01,9.0,WNW,10.4,-,N/A,,Overcast,300,2013-02-12 18:53:00
2:53 PM,28.9,21.0,72,30.01,8.0,WSW,12.7,-,N/A,,Overcast,250,2013-02-12 19:53:00
3:53 PM,28.9,21.9,75,30.02,9.0,West,8.1,-,N/A,,Overcast,260,2013-02-12 20:53:00
4:53 PM,28.0,21.9,78,30.02,7.0,WSW,11.5,-,N/A,,Overcast,240,2013-02-12 21:53:00
5:53 PM,28.0,21.0,75,30.01,9.0,WSW,8.1,-,N/A,,Overcast,240,2013-02-12 22:53:00
6:53 PM,28.0,21.0,75,30.01,9.0,WSW,5.8,-,N/A,,Overcast,250,2013-02-12 23:53:00
7:53 PM,28.0,21.9,78,30.01,9.0,West,6.9,-,N/A,,Overcast,270,2013-02-13 00:53:00
8:53 PM,28.0,21.9,78,29.99,9.0,WSW,6.9,-,N/A,,Overcast,250,2013-02-13 01:53:00
9:53 PM,28.0,21.0,75,29.97,9.0,Calm,Calm,-,N/A,,Overcast,0,2013-02-13 02:53:00
10:53 PM,28.0,21.9,78,29.96,9.0,West,8.1,-,N/A,,Overcast,280,2013-02-13 03:53:00
11:53 PM,28.0,21.9,78,29.96,8.0,West,4.6,-,N/A,,Overcast,260,2013-02-13 04:53:00